Location: Newark
(42.2947°N, 5.1925°W)
Time: 19:27:40
(UTC+00:00)

STARLINK 1015 - Pass Details

Date: 13 December 2019
Orbit: 347 x 352 km, 53.0° (Epoch: 17 January)

Event Time Altitude Azimuth Distance (km) Brightness Sun altitude
Exits shadow 06:02:26 16° 209° (SSW) 1,097 5.0 -17.5°
Drops below altitude 10° 06:03:46 10° 185° (S) 1,390 5.8 -17.3°
Sets 06:06:14 0° 164° (SSE) 2,233 7.2 -16.8°
